STARLINK-5726, 55608

Orbit data source: Space-Track

STARLINK-5726, 55608 is a payload satellite owned by SpaceX/Seattle (US) in LEO that was launched on Sun, 12 Feb 2023 UTC via an FALCON 9 launch vehicle from the Air Force Eastern Test Range (AFETR). Payload-class satellites include a variety of spacecraft equipped with specific instruments for various scientific and technological missions. These include communications satellites like Starlink; space stations such as the ISS; scientific satellites like the Hubble; Earth observation satellites from companies like Planet Labs, Umbra, and HawkEye 360; GPS; miniature CubeSats for education and research; and military/defense satellites.

Loading next visibility...
Identifier
55608, 2023-020AR
Orbit
LEO
Country
Flag of USUS
Related business
Manufacturer
SpaceX/Seattle
Mission
Operational Commercial Communications
Bus & Motor
STARLINK, Unknown motor
Mass
305 kg wet, ~290 kg dry
Launch date (UTC)
2023-02-12 (4 years ago)
Launch vehicle
FALCON 9
Launch site
Air Force Eastern Test Range (AFETR)
Object type
Payload
Rocket body
Debris
Shape & HBR
Box + 1 Pan, 10.1 m
Radar Cross Section
13.562 m², Large (>1 m²)

Expand to show TLE details & history
Last TLE update: 16 hours ago

TLE from 16 hours ago
0 STARLINK-5726
1 55608U 23020AR  26264.23626720  .00000579  00000-0  30566-4 0  9994
2 55608  43.0046 330.0533 0001542 302.1933  57.8769 15.27580854198941
Epoch: 2026-09-21T05:40Z
TLE epoch observation values (Epoch: 2026-09-21T05:40:13.486Z)
Latitude
-0.00001°
Longitude
-115.12189°
Altitude
482.26 km
Speed
7.626 km/s
True Right ascension
22h 00m 12s
True Declination
0° 00' 00"
Sunlit
Object was in full shadow at epoch
Visualization orbit readout
Latitude
Unknown
Longitude
Unknown
Altitude
Unknown
Speed
Unknown
Apparent Right ascension
Unknown
Apparent Declination
Unknown
Sunlit
N/A
Visualization observer readout
Local Sidereal Time
15:12:35
Azimuth
Unknown
Elevation
Unknown
Doppler factor
Unknown
Orbital elements
Apogee altitude
486.049 km
Perigee altitude
483.933 km
Semi-major axis
6,863.128 km
Eccentricity
0.00015
Inclination
43.0046°
RAAN
330.0533°
Arg. of periapsis
302.1933°
True anomaly
57.89187°
Mean anomaly
57.8769°
Eccentric anomaly
57.88438°
Mean motion
3.81733 °/min
Orbital period
94.31 mins
BSTAR
0.000030566
Loading maneuver chart data...
Computing Atmospheric mass density...
Loading historical data...
Loading historical data...
Loading historical data...
Loading historical data...
Loading historical data...
Loading historical data...
Loading historical data...

Documentation

Showing up to 5 results
|